DW7251 Weather Reports


time (UTC)temp
C
wind
direction
speed
KPH
gust
KPH
rain 1hr
cm
rain 24hr
cm
rain mn
cm
humidity
%
barometer
mb
20260510223846 9 42 1.6 8.0 0.00 0.00 0.00 93 1033.1
20260510222700 8 30 1.6 8.0 0.00 0.00 0.00 93 1033.0
20260510221516 8 37 0.0 4.8 0.00 0.00 0.00 93 1033.1
20260510221008 8 29 0.0 4.8 0.00 0.00 0.00 93 1033.0
20260510220453 8 14 0.0 4.8 0.00 0.00 0.00 94 1033.0
20260510215936 7 39 0.0 4.8 0.00 0.00 0.00 93 1033.0
20260510215430 7 34 0.0 4.8 0.00 0.00 0.00 93 1033.0
20260510214926 7 69 0.0 4.8 0.00 0.00 0.00 93 1032.9
20260510214426 7 49 0.0 4.8 0.00 0.00 0.00 93 1032.9
20260510213914 7 70 0.0 4.8 0.00 0.00 0.00 93 1032.8
20260510213405 7 54 0.0 3.2 0.00 0.00 0.00 93 1032.7
20260510212859 7 39 0.0 3.2 0.00 0.00 0.00 93 1032.6
20260510211725 7 45 0.0 3.2 0.00 0.00 0.00 93 1032.6
20260510211217 7 27 0.0 3.2 0.00 0.00 0.00 93 1032.5
20260510210658 7 56 0.0 3.2 0.00 0.00 0.00 93 1032.5
20260510210203 7 39 0.0 1.6 0.00 0.00 0.00 92 1032.4
20260510205707 7 48 0.0 1.6 0.00 0.00 0.00 92 1032.4
20260510205201 7 47 0.0 1.6 0.00 0.00 0.00 92 1032.3
20260510204033 7 22 0.0 1.6 0.00 0.00 0.00 92 1032.3
20260510203528 7 42 0.0 1.6 0.00 0.00 0.00 92 1032.2
20260510203034 7 51 0.0 1.6 0.00 0.00 0.00 92 1032.0
20260510202517 7 41 0.0 1.6 0.00 0.00 0.00 92 1032.1
20260510202002 7 24 0.0 1.6 0.00 0.00 0.00 92 1032.1
20260510201453 7 29 0.0 0.0 0.00 0.00 0.00 92 1032.1
20260510200946 7 39 0.0 0.0 0.00 0.00 0.00 92 1031.9
20260510200449 7 47 0.0 0.0 0.00 0.00 0.00 92 1031.9
20260510195937 7 35 0.0 0.0 0.00 0.00 0.00 92 1031.9
20260510195440 7 50 0.0 0.0 0.00 0.00 0.00 92 1031.9
20260510194927 7 56 0.0 1.6 0.00 0.00 0.00 92 1031.8
20260510194430 7 27 0.0 1.6 0.00 0.00 0.00 92 1031.8
20260510193930 7 39 0.0 0.0 0.00 0.00 0.00 92 1031.7
20260510191525 7 37 0.0 0.0 0.00 0.00 0.00 92 1031.5
20260510191008 7 26 0.0 1.6 0.00 0.00 0.00 92 1031.5
20260510185827 7 17 0.0 0.0 0.00 0.00 0.00 92 1031.4
20260510185312 7 33 0.0 0.0 0.00 0.00 0.00 92 1031.3
20260510184758 7 33 0.0 0.0 0.00 0.00 0.00 92 1031.3
20260510184300 7 33 0.0 0.0 0.00 0.00 0.00 92 1031.3
20260510183759 7 33 0.0 0.0 0.00 0.00 0.00 92 1031.3
20260510183301 7 44 0.0 0.0 0.00 0.00 0.00 92 1031.2
20260510182755 7 18 0.0 0.0 0.00 0.00 0.00 92 1031.1
20260510182238 7 2 0.0 0.0 0.00 0.00 0.00 92 1031.1
20260510181726 7 37 0.0 0.0 0.00 0.00 0.00 92 1031.0
20260510181221 8 37 0.0 0.0 0.00 0.00 0.00 92 1031.0
20260510180713 8 40 0.0 0.0 0.00 0.00 0.00 92 1031.0
20260510180158 8 39 0.0 0.0 0.00 0.00 0.00 92 1031.0
20260510175641 8 39 0.0 0.0 0.00 0.00 0.00 92 1030.9
20260510175139 8 39 0.0 0.0 0.00 0.00 0.00 91 1030.8
20260510174640 8 39 0.0 0.0 0.00 0.00 0.00 92 1030.8
20260510174129 8 39 0.0 0.0 0.00 0.00 0.00 92 1030.8
20260510173633 8 38 0.0 0.0 0.00 0.00 0.00 92 1030.9
20260510173122 8 48 0.0 0.0 0.00 0.00 0.00 92 1030.9
20260510170719 8 35 0.0 0.0 0.00 0.00 0.00 92 1030.8
20260510170221 8 38 0.0 0.0 0.00 0.00 0.00 92 1030.8
20260510165710 8 40 0.0 0.0 0.00 0.00 0.00 92 1030.8
20260510165153 8 41 0.0 0.0 0.00 0.00 0.00 92 1030.8
20260510164651 8 42 0.0 0.0 0.00 0.00 0.00 92 1030.8
20260510163509 8 43 0.0 0.0 0.00 0.00 0.00 91 1030.9
20260510163001 8 42 0.0 0.0 0.00 0.00 0.00 91 1031.1
20260510161835 8 42 0.0 0.0 0.00 0.00 0.00 91 1031.0
20260510161345 8 43 0.0 0.0 0.00 0.00 0.00 91 1031.0
20260510160828 8 42 0.0 0.0 0.00 0.00 0.00 91 1031.0
20260510160331 9 42 0.0 0.0 0.00 0.00 0.00 91 1031.1
20260510155823 9 42 0.0 0.0 0.00 0.00 0.00 91 1031.1
20260510154641 8 43 0.0 0.0 0.00 0.00 0.00 91 1031.0
20260510154138 8 43 0.0 0.0 0.00 0.00 0.00 91 1031.0
20260510153624 8 43 0.0 0.0 0.00 0.00 0.00 91 1031.0
20260510153113 9 42 0.0 0.0 0.00 0.00 0.00 91 1031.0
20260510152622 9 43 0.0 0.0 0.00 0.00 0.00 91 1031.0
20260510152119 9 43 0.0 0.0 0.00 0.00 0.00 91 1031.0
20260510151621 8 43 0.0 0.0 0.00 0.00 0.00 91 1031.0
20260510151130 8 43 0.0 0.0 0.00 0.00 0.00 91 1031.0
20260510150633 8 43 0.0 0.0 0.00 0.00 0.00 91 1031.0
20260510150127 9 43 0.0 0.0 0.00 0.00 0.00 91 1031.0
20260510145619 9 42 0.0 0.0 0.00 0.00 0.00 91 1031.1
20260510145106 9 43 0.0 0.0 0.00 0.00 0.00 91 1031.0
20260510143930 9 42 0.0 0.0 0.00 0.00 0.00 90 1031.0
20260510142115 10 43 0.0 0.0 0.00 0.00 0.00 90 1031.1
20260510140934 10 43 0.0 0.0 0.00 0.00 0.00 90 1031.0
20260510140441 10 43 0.0 0.0 0.00 0.00 0.00 90 1031.0
20260510135941 10 42 0.0 0.0 0.00 0.00 0.00 90 1031.1
20260510134815 11 43 0.0 0.0 0.00 0.00 0.00 90 1031.0
20260510134320 11 43 0.0 0.0 0.00 0.00 0.00 90 1031.1
20260510133814 11 43 0.0 0.0 0.00 0.00 0.00 90 1031.1
20260510133315 11 43 0.0 0.0 0.00 0.00 0.00 90 1031.2
20260510132812 11 54 0.0 0.0 0.00 0.00 0.00 90 1031.1
20260510132255 11 54 0.0 0.0 0.00 0.00 0.00 90 1031.2
20260510131755 11 54 0.0 0.0 0.00 0.00 0.00 90 1031.2
20260510131253 11 54 0.0 0.0 0.00 0.00 0.00 89 1031.2
20260510130737 11 54 0.0 0.0 0.00 0.00 0.00 89 1031.2
20260510130247 11 54 0.0 0.0 0.00 0.00 0.00 89 1031.2
20260510125746 11 60 0.0 0.0 0.00 0.00 0.00 89 1031.3
20260510125246 11 59 0.0 0.0 0.00 0.00 0.00 89 1031.4
20260510124726 11 60 0.0 0.0 0.00 0.00 0.00 89 1031.4
20260510124229 11 60 0.0 0.0 0.00 0.00 0.00 89 1031.4
20260510123733 11 63 0.0 0.0 0.00 0.00 0.00 89 1031.4
20260510123233 11 42 0.0 0.0 0.00 0.00 0.00 89 1031.4
20260510122736 11 39 0.0 0.0 0.00 0.00 0.00 89 1031.4
20260510122238 11 25 0.0 0.0 0.00 0.00 0.00 89 1031.5
20260510121746 11 17 0.0 0.0 0.00 0.00 0.00 89 1031.5
20260510120555 11 349 0.0 0.0 0.00 0.00 0.00 89 1031.5
20260510120050 11 348 0.0 0.0 0.00 0.00 0.00 89 1031.4
20260510115557 11 134 0.0 0.0 0.00 0.00 0.00 88 1031.4
20260510115049 11 134 0.0 0.0 0.00 0.00 0.00 88 1031.4
20260510113903 12 134 0.0 0.0 0.00 0.00 0.00 88 1031.2
20260510112739 12 134 0.0 0.0 0.00 0.00 0.00 87 1031.2
20260510112238 12 134 0.0 0.0 0.00 0.00 0.00 87 1031.1
20260510111731 12 134 0.0 0.0 0.00 0.00 0.00 88 1031.1
20260510111221 12 134 0.0 0.0 0.00 0.00 0.00 87 1030.9
20260510110720 13 134 0.0 0.0 0.00 0.00 0.00 88 1030.9
20260510110207 13 134 0.0 0.0 0.00 0.00 0.00 87 1030.9
20260510105709 13 134 0.0 0.0 0.00 0.00 0.00 87 1030.9
20260510104637 13 134 0.0 0.0 0.00 0.00 0.00 87 1030.8
20260510104130 13 134 0.0 0.0 0.00 0.00 0.00 87 1030.9
20260510103629 13 134 0.0 0.0 0.00 0.00 0.00 87 1030.9
20260510103117 13 134 0.0 0.0 0.00 0.00 0.00 87 1030.9
20260510102614 13 134 0.0 0.0 0.00 0.00 0.00 86 1030.9
20260510102111 13 134 0.0 0.0 0.00 0.00 0.00 86 1030.8
20260510101601 13 134 0.0 0.0 0.00 0.00 0.00 86 1030.8
20260510101043 13 134 0.0 0.0 0.00 0.00 0.00 86 1030.8
20260510100542 13 141 0.0 0.0 0.00 0.00 0.00 86 1030.8
20260510100038 14 141 0.0 1.6 0.00 0.00 0.00 86 1030.7
20260510095530 14 145 0.0 1.6 0.00 0.00 0.00 86 1030.7
20260510095010 14 135 0.0 0.0 0.00 0.00 0.00 85 1030.7
20260510094459 14 213 0.0 0.0 0.00 0.00 0.00 85 1030.7
20260510093947 14 117 0.0 1.6 0.00 0.00 0.00 85 1030.7
20260510093433 14 136 0.0 4.8 0.00 0.00 0.00 85 1030.8
20260510092919 14 115 0.0 1.6 0.00 0.00 0.00 85 1030.7
20260510092418 14 237 0.0 0.0 0.00 0.00 0.00 84 1030.6
20260510091912 15 133 0.0 1.6 0.00 0.00 0.00 84 1030.6
20260510091413 15 122 0.0 0.0 0.00 0.00 0.00 84 1030.6
20260510090911 15 138 0.0 3.2 0.00 0.00 0.00 84 1030.5
20260510085743 15 143 0.0 0.0 0.00 0.00 0.00 83 1030.5
20260510085228 15 127 0.0 0.0 0.00 0.00 0.00 83 1030.5
20260510084726 15 134 0.0 0.0 0.00 0.00 0.00 83 1030.5
20260510083551 15 138 0.0 0.0 0.00 0.00 0.00 82 1030.3
20260510083043 15 163 0.0 4.8 0.00 0.00 0.00 82 1030.3
20260510082537 15 133 0.0 4.8 0.00 0.00 0.00 81 1030.2
20260510082034 15 218 0.0 4.8 0.00 0.00 0.00 81 1030.2
20260510081525 15 164 1.6 4.8 0.00 0.00 0.00 80 1030.1
20260510081011 15 164 1.6 4.8 0.00 0.00 0.00 80 1030.1
20260510075854 15 145 0.0 4.8 0.00 0.00 0.00 79 1029.9
20260510075335 15 146 0.0 3.2 0.00 0.00 0.00 78 1029.8
20260510074834 15 182 0.0 3.2 0.00 0.00 0.00 78 1029.8
20260510074322 15 215 0.0 3.2 0.00 0.00 0.00 78 1029.8
20260510073820 15 151 0.0 1.6 0.00 0.00 0.00 77 1029.7
20260510073302 15 165 0.0 6.4 0.00 0.00 0.00 77 1029.7
20260510072746 15 146 0.0 6.4 0.00 0.00 0.00 77 1029.7
20260510072242 15 156 0.0 6.4 0.00 0.00 0.00 76 1029.7
20260510071752 15 218 0.0 6.4 0.00 0.00 0.00 76 1029.7
20260510070625 15 167 0.0 4.8 0.00 0.00 0.00 75 1029.6
20260510065436 15 156 0.0 3.2 0.00 0.00 0.00 74 1029.5
20260510064928 16 181 0.0 3.2 0.00 0.00 0.00 74 1029.5
20260510064421 16 151 0.0 3.2 0.00 0.00 0.00 73 1029.5
20260510063927 16 128 0.0 3.2 0.00 0.00 0.00 73 1029.4
20260510063419 16 134 0.0 0.0 0.00 0.00 0.00 73 1029.5
20260510062914 16 146 0.0 3.2 0.00 0.00 0.00 73 1029.4
20260510062358 17 231 0.0 1.6 0.00 0.00 0.00 72 1029.4
20260510061857 17 277 0.0 1.6 0.00 0.00 0.00 72 1029.4
20260510061404 17 277 0.0 1.6 0.00 0.00 0.00 72 1029.4
20260510060902 17 319 0.0 1.6 0.00 0.00 0.00 72 1029.4
20260510060400 17 269 0.0 0.0 0.00 0.00 0.00 72 1029.4
20260510055857 17 269 0.0 0.0 0.00 0.00 0.00 72 1029.4
20260510054729 17 307 0.0 3.2 0.00 0.00 0.00 71 1029.4
20260510054212 17 280 0.0 3.2 0.00 0.00 0.00 70 1029.4
20260510053714 18 306 0.0 1.6 0.00 0.00 0.00 69 1029.3
20260510053214 18 318 0.0 0.0 0.00 0.00 0.00 70 1029.3
20260510052709 18 347 0.0 3.2 0.00 0.00 0.00 70 1029.3
20260510052152 18 315 0.0 0.0 0.00 0.00 0.00 70 1029.3
20260510051656 17 281 0.0 3.2 0.00 0.00 0.00 70 1029.3
20260510051138 17 269 0.0 3.2 0.00 0.00 0.00 71 1029.2
20260510050640 17 274 0.0 3.2 0.00 0.00 0.00 71 1029.2
20260510050122 17 280 0.0 3.2 0.00 0.00 0.00 71 1029.2
20260510045602 17 302 0.0 0.0 0.00 0.00 0.00 71 1029.2
20260510043803 16 278 0.0 0.0 0.00 0.00 0.00 73 1029.2
20260510042036 17 276 0.0 0.0 0.00 0.00 0.00 71 1029.3
20260510041538 17 282 0.0 0.0 0.00 0.00 0.00 70 1029.2
20260510041019 17 224 0.0 0.0 0.00 0.00 0.00 71 1029.4
20260510035900 17 224 0.0 0.0 0.00 0.00 0.00 68 1029.4
20260510035400 17 224 0.0 0.0 0.00 0.00 0.00 68 1029.5
20260510034907 17 224 0.0 1.6 0.00 0.00 0.00 69 1029.5
20260510034412 17 227 0.0 0.0 0.00 0.00 0.00 69 1029.5
20260510033857 17 247 0.0 0.0 0.00 0.00 0.00 69 1029.5
20260510032702 16 175 0.0 4.8 0.00 0.00 0.00 68 1029.5
20260510031517 16 278 0.0 4.8 0.00 0.00 0.00 68 1029.5
20260510031027 16 182 0.0 4.8 0.00 0.00 0.00 67 1029.6
20260510030519 16 224 0.0 4.8 0.00 0.00 0.00 68 1029.6
20260510030013 16 229 0.0 4.8 0.00 0.00 0.00 67 1029.6
20260510025502 16 139 0.0 1.6 0.00 0.00 0.00 68 1029.7
20260510025001 16 130 0.0 0.0 0.00 0.00 0.00 69 1029.7
20260510023842 16 187 0.0 1.6 0.00 0.00 0.00 72 1030.0
20260510023343 16 187 0.0 1.6 0.00 0.00 0.00 72 1030.0
20260510022826 16 158 0.0 4.8 0.00 0.00 0.00 72 1030.1
20260510022322 16 198 0.0 3.2 0.00 0.00 0.00 72 1030.1
20260510021819 16 271 0.0 3.2 0.00 0.00 0.00 72 1030.1
20260510021309 16 137 0.0 1.6 0.00 0.00 0.00 73 1030.2
20260510020819 16 317 0.0 0.0 0.00 0.00 0.00 73 1030.3
20260510020307 16 115 0.0 4.8 0.00 0.00 0.00 73 1030.3
20260510015804 16 142 0.0 4.8 0.00 0.00 0.00 74 1030.4
20260510015244 16 129 0.0 4.8 0.00 0.00 0.00 75 1030.5
20260510014745 16 204 1.6 6.4 0.00 0.00 0.00 74 1030.5
20260510014242 15 231 1.6 6.4 0.00 0.00 0.00 74 1030.6
20260510013746 15 161 1.6 6.4 0.00 0.00 0.00 74 1030.7
20260510013251 16 140 0.0 6.4 0.00 0.00 0.00 75 1030.7
20260510011426 15 147 0.0 6.4 0.00 0.00 0.00 75 1030.8
20260510010923 15 222 0.0 4.8 0.00 0.00 0.00 76 1030.7
20260510010407 15 256 0.0 4.8 0.00 0.00 0.00 76 1030.7
20260510005218 15 150 0.0 4.8 0.00 0.00 0.00 77 1030.6
20260510002759 15 189 0.0 1.6 0.00 0.00 0.00 80 1030.7
20260510002306 15 278 0.0 0.0 0.00 0.00 0.00 80 1030.8
20260510001808 15 269 0.0 4.8 0.00 0.00 0.00 80 1030.7
20260510001253 16 281 0.0 4.8 0.00 0.00 0.00 79 1030.6
20260510000744 16 270 0.0 4.8 0.00 0.00 0.00 79 1030.7
20260510000226 16 303 0.0 4.8 0.00 0.00 0.00 79 1030.6
20260509235707 16 312 0.0 0.0 0.00 0.00 0.00 78 1030.6
20260509235159 16 268 0.0 0.0 0.00 0.00 0.00 78 1030.6
20260509234653 16 268 0.0 0.0 0.00 0.00 0.00 77 1030.6
20260509234201 16 268 0.0 0.0 0.00 0.00 0.00 77 1030.6
20260509233705 15 224 0.0 0.0 0.00 0.00 0.00 76 1030.6
20260509233158 15 212 0.0 0.0 0.00 0.00 0.00 76 1030.6
20260509232647 15 212 0.0 0.0 0.00 0.00 0.00 75 1030.6
20260509232131 15 212 0.0 0.0 0.00 0.00 0.00 75 1030.5
20260509231640 15 212 0.0 0.0 0.00 0.00 0.00 76 1030.5
20260509231135 15 212 0.0 0.0 0.00 0.00 0.00 76 1030.5
20260509230624 15 212 0.0 0.0 0.00 0.00 0.00 76 1030.5
20260509230110 15 212 0.0 0.0 0.00 0.00 0.00 76 1030.5
20260509225607 15 212 0.0 0.0 0.00 0.00 0.00 75 1030.5
20260509225059 15 212 0.0 0.0 0.00 0.00 0.00 76 1030.4
20260509224541 15 212 0.0 6.4 0.00 0.00 0.00 75 1030.5
20260509224022 14 127 0.0 6.4 0.00 0.00 0.00 76 1030.4